SCIR

Robinson Crusoe Airport

Airport
ICAO code
SCIR
Summary
ICAO Region
CARSAM
ICAO Territory
Location

Isla Robinson Crusoe, Valparaiso

Serving
San Juan Bautista
Elevation
433 ft
Coordinates
33° 39' 54" S , 78° 55' 47" W
KCC
Metar
SCIR 101200Z 16016KT 9999 BKN020 BKN030 13/09 Q1018

Airport on the island of Robinson Crusoe, Chile.

Climatology

Temperate oceanic climate (Köppen climate classification Cfb)

Runways

Designator Length Width Surface Rops
14/32 860 18 ASP No/No

Airport map

Aerial View

SKYbrary Partners:

Safety knowledge contributed by: